Погода Нижний Тагил

Хотите узнать прогноз погоды Нижний Тагил? Тогда Вам сюда: Погода Нижний Тагил

Поиск расширенной информации на нашем сайте:

Полезная информация:

Новости сайта



02.01.2020
Опубликован Долгосрочный прогноз погоды по городам России и ближнего зарубежья на январь 2020 года.
Карты: Прогноз на январь и февраль 2020 года, Сравнение прогнозируемой аномалии приземной температуры воздуха на январь 2020 года по разным моделям.




Погода Нижний Тагил - сегодня

Время (UTC), дата Ветер
(°,м/с) 
Видим.   Явления Облачность Т
(°С)
Тd
(°С)
f(%) Тe
(°С)
Pmin
(гПа)
dP
(гПа)
Po
(мм)
O2
(г/м3)
Тmin Tmax R s Состояние
почвы
00 16.01.22 080 (В) 20000 м  слаб. снег  10/10 600 м 
[Sc]
-15.2 -17.3 84 -15  983.5  1.2  713  305           
03 16.01.22 тихо ()   4000 м  слаб. снег  10/0 средняя 
[As trans]
-14.2 -16.1 85 -14  985  1.5  714  305  -16.2    25  равномерный
сухой снег
100% 
06 16.01.22 тихо ()   4000 м  слаб. снег  10/10 600 м 
[Sc]
-13.9 -15.9 85 -14  987  715  305           
09 16.01.22 300 (СЗ) 20000 м  {снег}  4/3 600 м верхняя 
[Sc|Ci fib]
-13.4 -15.6 83 -13  986.9  0.1  715  304           
12 16.01.22 350 (С) 4000 м  слаб. снег  10/10 600 м 
[Sc]
-14.7 -16.8 84 -18  988.3  716  306           
15 16.01.22 250 (З) 4000 м  слаб. снег  6/6 600 м 
[Sc]
-18.3 -20.3 84 -19  989.5  0.8  717  311    -12.7  0.7     
18 16.01.22 280 (З) 4000 м  слаб. снег  10/0 верхняя 
[Cc]
-20.2 -22.7 80 -20  990.5  0.7  717  314           
21 16.01.22 тихо ()   20000 м  {снег}  ясно 
-24.9 -27.8 77 -25  992.4  1.1  718  320           
00 17.01.22 230 (ЮЗ) 20000 м  {снег}  ясно 
-23.9 -26.6 78 -24  993.9  1.7  719  319           
03 17.01.22 260 (З) 4000 м  слаб. снег  10/10 600 м 
[Sc]
-16.4 -18.9 81 -21  995.4  2.4  721  311  -25.5    0.4  28  равномерный
сухой снег
100% 
06 17.01.22 260 (З) 5-10{10}  20000 м  {снег}  10/0 средняя 
[Ac As]
-15.8 -18.8 78 -22  998.3  2.8  723  311           
09 17.01.22 240 (ЮЗ) 3{10}  20000 м  {снег}  8/8 1000 м 
[Sc]
-12.5 -15.6 78 -16  999.6  1.9  725  307           
12 17.01.22 190 (Ю) 4000 м  слаб. снег  10/0 средняя 
[As trans]
-11 -13.7 80 -13  1000.6  725  306           
15 17.01.22 210 (ЮЗ) 20000 м  {снег}  10/4 600 м средняя 
[Sc|As op]
-8.9 -12 78 -12  1000.3  -0.1  725  303    -8.9  0.2     
18 17.01.22 230 (ЮЗ) 4{10}  4000 м  слаб. снег  10/0 средняя 
[As trans]
-8 -10.8 80 -12  1000.8  0.7  726  302           
21 17.01.22 240 (ЮЗ) 5-10{11}  20000 м  позёмок{снег}  8/0 средняя 
[Ac As]
-7 -10.4 77 -11  1001.9  1.2  727  302           
00 18.01.22 240 (ЮЗ) 7-12{13}  20000 м  позёмок{снег}  10/0 средняя 
[Ac As]
-7.4 -10.7 77 -13  1003.9  1.9  728  303           
03 18.01.22 230 (ЮЗ) 4{14}  20000 м  позёмок  8/4 600 м средняя 
[Sc|Ac lent]
-6.4 -10 76 -10  1005  1.2  729  302  -8.8    0.0  26  равномерный
сухой снег
100% 
06 18.01.22 230 (ЮЗ) 5{11}  4000 м  слаб. снег  10/10 600 м 
[Sc]
-6.1 -9.3 78 -10  1006.5  1.4  730  302           
09 18.01.22 220 (ЮЗ) 4{12}  20000 м  {снег}  10/6 600 м средняя 
[Sc|Ac As]
-5.4 -9.8 71 -9  1007.7  1.3  731  301           
12 18.01.22 210 (ЮЗ) 3{10}  20000 м  {снег}  5/5 600 м 
[Sc]
-5.7 -9.5 74 -8  1008.5  0.7  732  302           
15 18.01.22 220 (ЮЗ) 3{10}  4000 м  слаб. снег  10/10 600 м 
[Sc]
-4.7 -8.2 76 -7  1009.3  732  301    -4.7  0.2     
18 18.01.22 240 (ЮЗ) 2{10}  4000 м  слаб. снег  10/10 600 м 
[Sc]
-4.3 -7.7 77 -6  1009.7  0.4  733  301           
21 18.01.22 220 (ЮЗ) 4000 м  слаб. снег  10/10 600 м 
[Sc]
-4.8 -7.3 83 -6  1011  1.3  734  302           
00 19.01.22 220 (ЮЗ) 20000 м  {снег}  10/10 600 м 
[Sc]
-4 -7 80 -6  1011.6  0.5  734  301           
Время (UTC), дата Ветер
(°,м/с) 
Видим.   Явления Облачность Т
(°С)
Тd
(°С)
f(%) Тe
(°С)
Pmin
(гПа)
dP
(гПа)
Po
(мм)
O2
(г/м3)
Тmin Tmax R s Состояние
почвы

Для получения пояснительной информации подведите курсор к названию столбца.

ПОГОДА Нижний Тагил - архив

Всё, что Вы хотите узнать о погоде Нижний Тагил - удобно и подробно!

Выберите нужную дату (начиная с 1 января 2019* года) и нажмите кнопку "Найти".
Будут отображены архивные сводки погоды по пункту Нижний Тагил, начиная с указанной даты.


Отображать данные в формате CSV (для использования в таблицах Excel)


Внимание! Наш архив погоды предназначен исключительно для личного некоммерческого использования в познавательных целях. Если Вам необходимы официальные справки о состоянии погоды (для производственных, юридических, коммерческих и т.п. целей), обращайтесь в органы Росгидромета.

*Примечание: данная дата относится к архиву по метеостанциям СССР (Россия, СНГ, Балтия).
Архив по метеостанциям Зарубежной Европы и Азии (кроме Китая) хранится 10 дней, по другим регионам земного шара (Китай, Африка, Америка, Австралия, Океания) - 1 день.

Нижний Тагил - район местоположения метеостанции


Название, широта, долгота, высота метеостанции:
Нижний Тагил 57.9°ш. 60.1°д. 260 м над ур. моря [Российская Федерация]

Дополнительная информация

В oтличие oт бoльшинства пoгoдных сайтoв мы публикуем пoдрoбную метеoинфoрмацию в детальнoм прoфессиoнальнoм фoрмате.

Характеристики температуры и влажнoсти вoздуха измеряются на высoте 2 м в тени вдали oт зданий и деревьев.
Скoрoсть ветра измеряется на высoте 10 м (на урoвне рoста челoвека скoрoсть ветра ниже в 1.5-2 раза). Если метеoстанция нахoдится в гoрoде или в лесу, тo скoрoсть ветра занижена на 2-4 м/с пo сравнению с oткрытым местoм. Скoрoсть ветра над акватoриями крупных рек и oзёр, а также на вершинах хoлмoв на 2-5 м/с выше, чем в oбычных услoвиях.
Атмoсфернoе давление в разных тoчках местнoсти мoжет значительнo oтличаться oт давления на метеoстанции, в зависимoсти oт услoвий рельефа (при пoдъёме на 10 м давление пoнижается примернo на 1 мм рт.ст.).